Voltar ao catálogo

STARLINK-30583

AtivoComunicaçõesVLEO
NORAD 58086·PAYLOAD·🇺🇸 United States

Lançado Oct 18, 2023 de Cape Canaveral Space Force Station

Loading…

Próximas Passagens (próximas 24 horas)

TLE

AtualizadoSource: CelesTrak SupGP

Época: Sep 14, 2026, 13:45 UTC

1 58086C 23160M   26257.57340278  .00015730  00000+0  56933-3 0  2578
2 58086  43.0001  94.6907 0001247 252.3560  41.5335 15.27594819    12

Acompanhe STARLINK-30583 em tempo real com AllMySat

Download on the App Store